STARLINK-1821, 46718

Orbit data source: Space-Track

STARLINK-1821, 46718 is a payload satellite owned by SpaceX/Seattle (US) in LEO that was launched on Sun, 18 Oct 2020 UTC via an FALCON 9 launch vehicle from the Air Force Eastern Test Range (AFETR). Payload-class satellites include a variety of spacecraft equipped with specific instruments for various scientific and technological missions. These include communications satellites like Starlink; space stations such as the ISS; scientific satellites like the Hubble; Earth observation satellites from companies like Planet Labs, Umbra, and HawkEye 360; GPS; miniature CubeSats for education and research; and military/defense satellites.

Loading next visibility...
Identifier
46718, 2020-073BA
Orbit
LEO
Country
Flag of USUS
Related business
Manufacturer
SpaceX/Seattle
Mission
Partially operational Commercial Communications
Bus & Motor
STARLINK, Unknown motor
Mass
260 kg wet, ~248 kg dry
Launch date (UTC)
2020-10-18 (5 years ago)
Launch vehicle
FALCON 9
Launch site
Air Force Eastern Test Range (AFETR)
Object type
Payload
Rocket body
Debris
Shape & HBR
Box + 1 Pan, 4.4 m
Radar Cross Section
13.562 m², Large (>1 m²)

Expand to show TLE details & history
Last TLE update: 8 hours ago

TLE from 8 hours ago
0 STARLINK-1821
1 46718U 20073BA  25258.16521778  .00014044  00000-0  70318-3 0  9992
2 46718  53.0542 319.6779 0003858 300.9233  59.1381 15.17654854270533
Epoch: 2025-09-15T03:57Z
TLE epoch observation values (Epoch: 2025-09-15T03:57:54.816Z)
Latitude
-0.00004°
Longitude
-94.17432°
Altitude
512.451 km
Speed
7.61 km/s
True Right ascension
21h 18m 42s
True Declination
0° 00' 00"
Sunlit
Object was in full shadow at epoch
Visualization orbit readout
Latitude
Unknown
Longitude
Unknown
Altitude
Unknown
Speed
Unknown
Apparent Right ascension
Unknown
Apparent Declination
Unknown
Sunlit
N/A
Visualization observer readout
Local Sidereal Time
04:15:27
Azimuth
Unknown
Elevation
Unknown
Doppler factor
Unknown
Orbital elements
Apogee altitude
515.861 km
Perigee altitude
510.544 km
Semi-major axis
6,891.339 km
Eccentricity
0.00039
Inclination
53.0542°
RAAN
319.6779°
Arg. of periapsis
300.9233°
True anomaly
59.17606°
Mean anomaly
59.1381°
Eccentric anomaly
59.15708°
Mean motion
3.79392 °/min
Orbital period
94.89 mins
BSTAR
0.00070318
Loading maneuver chart data...
Computing Atmospheric mass density...

Documentation

Showing up to 5 results
|